Weather History for Silver Bay, MN

Change the Weather History Date:

Saturday, February 4, 2012

  Actual Average Record
Temperature  
Mean Temperature 32 °F -  
Max Temperature 44 °F 24 °F 53 °F (2005)
Min Temperature 19 °F 3 °F -29 °F (2013)
Degree Days  
Heating Degree Days 34    
Moisture  
Dew Point 19 °F    
Average Humidity 63    
Maximum Humidity 86    
Minimum Humidity 31    
Precipitation  
Precipitation 0.00 in - - ()
Sea Level Pressure  
Sea Level Pressure 30.27 in    
Wind  
Wind Speed 5 mph (NW)    
Max Wind Speed 12 mph    
Max Gust Speed 22 mph    
Visibility 10 miles    
Events      
Averages and records for this station are not official NWS values.
T = Trace of Precipitation, MM = Missing Value Source: NWS Daily Summary

Daily Weather History Graph

Daily Weather History Graph

Search for Another Location

Airport:

Trip Planner

Search our weather history database for the weather conditions in past years. The results will help you decide how hot, cold, wet, or windy it might be!

Date:

Astronomy

Feb. 04, 2012 Rise Set
Actual Time 7:27 AM CST 5:11 PM CST
Civil Twilight 6:55 AM CST 5:44 PM CST
Nautical Twilight 6:18 AM CST 6:20 PM CST
Astronomical Twilight 5:43 AM CST 6:56 PM CST
Moon 2:01 PM CST (2/4) 5:02 AM CST (2/4)
Length of Visible Light 10h 48m
Length of Day
9h 43m
Waxing Gibbous, 89% of the Moon is Illuminated
Feb 4
Waxing Gibbous
Feb 7
Full
Feb 14
Last Quarter
Feb 21
New
Feb 29
First Quarter

Hourly Weather History & Observations

Time (CST) Temp. Windchill Dew Point Humidity Pressure Visibility Wind Dir Wind Speed Gust Speed Precip Events Conditions
12:14 AM 24.8 °F 19.1 °F 19.4 °F 80% 30.36 in 10.0 mi NW 4.6 mph - N/A   Clear
12:34 AM 26.6 °F 20.0 °F 21.2 °F 80% 30.35 in 10.0 mi WNW 5.8 mph - N/A   Clear
12:54 AM 26.6 °F 19.1 °F 21.2 °F 80% 30.35 in 10.0 mi NW 6.9 mph - N/A   Clear
1:14 AM 26.6 °F 20.0 °F 21.2 °F 80% 30.35 in 10.0 mi NW 5.8 mph - N/A   Clear
1:34 AM 26.6 °F 21.2 °F 21.2 °F 80% 30.35 in 10.0 mi WNW 4.6 mph - N/A   Clear
1:54 AM 26.6 °F 21.2 °F 21.2 °F 80% 30.35 in 10.0 mi NW 4.6 mph - N/A   Clear
2:14 AM 24.8 °F - 19.4 °F 80% 30.35 in 10.0 mi Calm Calm - N/A   Clear
2:34 AM 24.8 °F - 19.4 °F 80% 30.35 in 10.0 mi Calm Calm - N/A   Clear
2:54 AM 23.0 °F - 17.6 °F 80% 30.35 in 10.0 mi Calm Calm - N/A   Clear
3:14 AM 23.0 °F - 17.6 °F 80% 30.35 in 10.0 mi Calm Calm - N/A   Clear
3:34 AM 21.2 °F - 15.8 °F 80% 30.35 in 10.0 mi Calm Calm - N/A   Clear
3:54 AM 19.4 °F - 15.8 °F 86% 30.35 in 10.0 mi Calm Calm - N/A   Clear
4:14 AM 19.4 °F 14.3 °F 15.8 °F 86% 30.34 in 10.0 mi NW 3.5 mph - N/A   Clear
4:34 AM 23.0 °F 17.0 °F 19.4 °F 86% 30.34 in 10.0 mi NW 4.6 mph - N/A   Clear
4:54 AM 24.8 °F 20.5 °F 21.2 °F 86% 30.33 in 10.0 mi NW 3.5 mph - N/A   Clear
5:14 AM 24.8 °F 16.9 °F 21.2 °F 86% 30.33 in 10.0 mi NNW 6.9 mph - N/A   Clear
5:34 AM 24.8 °F 17.9 °F 19.4 °F 80% 30.32 in 10.0 mi NW 5.8 mph - N/A   Clear
5:54 AM 24.8 °F 20.5 °F 19.4 °F 80% 30.32 in 10.0 mi NNW 3.5 mph - N/A   Clear
6:14 AM 24.8 °F - 19.4 °F 80% 30.32 in 10.0 mi Calm Calm - N/A   Clear
6:34 AM 23.0 °F - 17.6 °F 80% 30.32 in 10.0 mi Calm Calm - N/A   Clear
6:55 AM 21.2 °F - 17.6 °F 86% 30.32 in 10.0 mi Calm Calm - N/A   Clear
7:14 AM 19.4 °F - 15.8 °F 86% 30.31 in 10.0 mi Calm Calm - N/A   Clear
7:34 AM 19.4 °F - 15.8 °F 86% 30.31 in 10.0 mi Calm Calm - N/A   Clear
7:54 AM 19.4 °F - 15.8 °F 86% 30.31 in 10.0 mi Calm Calm - N/A   Clear
8:34 AM 26.6 °F - 21.2 °F 80% 30.31 in 10.0 mi Calm Calm - N/A   Clear
8:54 AM 28.4 °F 24.6 °F 21.2 °F 74% 30.30 in 10.0 mi West 3.5 mph - N/A   Clear
9:14 AM 30.2 °F 25.4 °F 21.2 °F 69% 30.30 in 10.0 mi WNW 4.6 mph - N/A   Clear
9:34 AM 30.2 °F 23.4 °F 21.2 °F 69% 30.30 in 10.0 mi WNW 6.9 mph - N/A   Clear
9:54 AM 33.8 °F 27.7 °F 21.2 °F 60% 30.29 in 10.0 mi West 6.9 mph - N/A   Clear
10:14 AM 33.8 °F 27.0 °F 23.0 °F 65% 30.28 in 10.0 mi West 8.1 mph - N/A   Clear
10:54 AM 37.4 °F 31.4 °F 21.2 °F 52% 30.27 in 10.0 mi West 8.1 mph - N/A   Clear
11:14 AM 37.4 °F 31.4 °F 23.0 °F 56% 30.26 in 10.0 mi West 8.1 mph - N/A   Clear
11:34 AM 39.2 °F 37.0 °F 23.0 °F 52% 30.24 in 10.0 mi WNW 3.5 mph - N/A   Clear
11:54 AM 41.0 °F 38.0 °F 23.0 °F 49% 30.24 in 10.0 mi West 4.6 mph - N/A   Clear
12:14 PM 42.8 °F 38.6 °F 21.2 °F 42% 30.23 in 10.0 mi West 6.9 mph - N/A   Clear
12:34 PM 44.6 °F 40.7 °F 21.2 °F 39% 30.23 in 10.0 mi WNW 6.9 mph - N/A   Clear
12:54 PM 42.8 °F 38.0 °F 19.4 °F 39% 30.22 in 10.0 mi West 8.1 mph - N/A   Clear
1:14 PM 44.6 °F 40.2 °F 17.6 °F 34% 30.21 in 10.0 mi WNW 8.1 mph - N/A   Clear
1:34 PM 44.6 °F 39.7 °F 15.8 °F 31% 30.21 in 10.0 mi NW 9.2 mph - N/A   Clear
1:54 PM 42.8 °F 37.5 °F 15.8 °F 34% 30.21 in 10.0 mi NNW 9.2 mph 17.3 mph N/A   Clear
2:14 PM 42.8 °F 38.6 °F 15.8 °F 34% 30.21 in 10.0 mi NNW 6.9 mph 16.1 mph N/A   Clear
2:34 PM 42.8 °F 36.6 °F 15.8 °F 34% 30.20 in 10.0 mi NW 11.5 mph 20.7 mph N/A   Clear
2:54 PM 42.8 °F 37.0 °F 14.0 °F 31% 30.19 in 10.0 mi NNW 10.4 mph 21.9 mph N/A   Clear
3:14 PM 41.0 °F 35.2 °F 15.8 °F 36% 30.19 in 10.0 mi NNW 9.2 mph 18.4 mph N/A   Clear
3:34 PM 41.0 °F 37.1 °F 15.8 °F 36% 30.19 in 10.0 mi NW 5.8 mph - N/A   Clear
3:54 PM 41.0 °F 38.0 °F 15.8 °F 36% 30.18 in 10.0 mi NW 4.6 mph - N/A   Clear
4:14 PM 39.2 °F 32.5 °F 15.8 °F 39% 30.18 in 10.0 mi NW 10.4 mph - N/A   Clear
4:34 PM 37.4 °F 30.8 °F 15.8 °F 41% 30.18 in 10.0 mi NNW 9.2 mph - N/A   Clear
4:54 PM 37.4 °F 31.4 °F 15.8 °F 41% 30.18 in 10.0 mi NNW 8.1 mph - N/A   Clear
5:14 PM 35.6 °F - 15.8 °F 44% 30.20 in 10.0 mi Calm Calm - N/A   Clear
5:34 PM 33.8 °F 30.8 °F 15.8 °F 48% 30.21 in 10.0 mi NNW 3.5 mph - N/A   Clear
5:54 PM 32.0 °F - 17.6 °F 55% 30.22 in 10.0 mi Calm Calm - N/A   Clear
6:14 PM 32.0 °F 26.4 °F 17.6 °F 55% 30.23 in 10.0 mi North 5.8 mph - N/A   Clear
6:34 PM 30.2 °F 25.4 °F 17.6 °F 60% 30.23 in 10.0 mi North 4.6 mph - N/A   Clear
6:54 PM 30.2 °F 24.3 °F 17.6 °F 60% 30.23 in 10.0 mi NNW 5.8 mph - N/A   Clear
7:14 PM 28.4 °F 22.2 °F 19.4 °F 69% 30.24 in 10.0 mi North 5.8 mph - N/A   Clear
7:34 PM 28.4 °F 24.6 °F 19.4 °F 69% 30.24 in 10.0 mi North 3.5 mph - N/A   Clear
7:54 PM 28.4 °F 21.2 °F 19.4 °F 69% 30.25 in 10.0 mi North 6.9 mph - N/A   Clear
8:14 PM 28.4 °F - 19.4 °F 69% 30.25 in 10.0 mi Calm Calm - N/A   Clear
8:34 PM 26.6 °F 21.2 °F 19.4 °F 74% 30.26 in 10.0 mi North 4.6 mph - N/A   Clear
8:54 PM 26.6 °F 20.0 °F 19.4 °F 74% 30.26 in 10.0 mi North 5.8 mph - N/A   Clear
9:14 PM 26.6 °F 19.1 °F 19.4 °F 74% 30.26 in 10.0 mi North 6.9 mph - N/A   Clear
9:34 PM 26.6 °F 19.1 °F 19.4 °F 74% 30.26 in 10.0 mi North 6.9 mph - N/A   Clear
9:54 PM 26.6 °F - 17.6 °F 69% 30.26 in 10.0 mi Calm Calm - N/A   Clear
10:14 PM 24.8 °F 17.9 °F 17.6 °F 74% 30.25 in 10.0 mi North 5.8 mph - N/A   Clear
10:34 PM 24.8 °F 19.1 °F 17.6 °F 74% 30.25 in 10.0 mi North 4.6 mph - N/A   Clear
10:54 PM 23.0 °F - 17.6 °F 80% 30.26 in 10.0 mi Calm Calm - N/A   Clear
11:14 PM 21.2 °F - 17.6 °F 86% 30.26 in 10.0 mi Calm Calm - N/A   Clear
11:34 PM 21.2 °F - 17.6 °F 86% 30.26 in 10.0 mi Calm Calm - N/A   Clear
11:54 PM 19.4 °F 14.3 °F 15.8 °F 86% 30.27 in 10.0 mi South 3.5 mph - N/A   Clear